iso_date,Year,Hour,Min,DOY,POS_DOY,Lat,Lon,BP,Ts,Ta,has_bp,has_ts,has_ta,BuoyID,Buoy_Type,Buoy_Owner,Logistics,Hemisphere
2020-09-05T18:00:00Z,2020,18,0,249.75,249.75,62.57,-52.53,-999.0,7.29,-999.0,no,yes,no,300234068343970,SVPGHI,AOML,MARIA_S._MERI,North
2020-09-05T19:00:02Z,2020,19,0,249.7917,249.7917,62.573,-52.533,-999.0,7.29,-999.0,no,yes,no,300234068343970,SVPGHI,AOML,MARIA_S._MERI,North
2020-09-05T19:59:57Z,2020,20,0,249.8333,249.8333,62.575,-52.532,-999.0,7.28,-999.0,no,yes,no,300234068343970,SVPGHI,AOML,MARIA_S._MERI,North
2020-09-05T21:00:00Z,2020,21,0,249.875,249.875,62.577,-52.534,-999.0,7.27,-999.0,no,yes,no,300234068343970,SVPGHI,AOML,MARIA_S._MERI,North
2020-09-05T22:00:02Z,2020,22,0,249.9167,249.9167,62.579,-52.536,-999.0,7.27,-999.0,no,yes,no,300234068343970,SVPGHI,AOML,MARIA_S._MERI,North
2020-09-05T22:59:57Z,2020,23,0,249.9583,249.9583,62.581,-52.533,-999.0,7.26,-999.0,no,yes,no,300234068343970,SVPGHI,AOML,MARIA_S._MERI,North
2020-09-06T00:00:00Z,2020,0,0,250.0,250.0,62.582,-52.535,-999.0,7.27,-999.0,no,yes,no,300234068343970,SVPGHI,AOML,MARIA_S._MERI,North
2020-09-06T01:00:02Z,2020,1,0,250.0417,250.0417,62.583,-52.54,-999.0,7.27,-999.0,no,yes,no,300234068343970,SVPGHI,AOML,MARIA_S._MERI,North
2020-09-06T01:59:57Z,2020,2,0,250.0833,250.0833,62.583,-52.547,-999.0,7.27,-999.0,no,yes,no,300234068343970,SVPGHI,AOML,MARIA_S._MERI,North
2020-09-06T03:00:00Z,2020,3,0,250.125,250.125,62.585,-52.553,-999.0,7.27,-999.0,no,yes,no,300234068343970,SVPGHI,AOML,MARIA_S._MERI,North
2020-09-06T04:00:02Z,2020,4,0,250.1667,250.1667,62.588,-52.552,-999.0,7.27,-999.0,no,yes,no,300234068343970,SVPGHI,AOML,MARIA_S._MERI,North
2020-09-06T05:01:58Z,2020,5,2,250.2097,250.2097,62.59,-52.55,-999.0,7.27,-999.0,no,yes,no,300234068343970,SVPGHI,AOML,MARIA_S._MERI,North
2020-09-06T06:00:00Z,2020,6,0,250.25,250.25,62.593,-52.546,-999.0,7.27,-999.0,no,yes,no,300234068343970,SVPGHI,AOML,MARIA_S._MERI,North
2020-09-06T07:00:02Z,2020,7,0,250.2917,250.2917,62.596,-52.543,-999.0,7.27,-999.0,no,yes,no,300234068343970,SVPGHI,AOML,MARIA_S._MERI,North
2020-09-06T07:59:57Z,2020,8,0,250.3333,250.3333,62.599,-52.543,-999.0,7.27,-999.0,no,yes,no,300234068343970,SVPGHI,AOML,MARIA_S._MERI,North
2020-09-06T09:00:00Z,2020,9,0,250.375,250.375,62.6,-52.542,-999.0,7.27,-999.0,no,yes,no,300234068343970,SVPGHI,AOML,MARIA_S._MERI,North
2020-09-06T10:00:02Z,2020,10,0,250.4167,250.4167,62.603,-52.545,-999.0,7.27,-999.0,no,yes,no,300234068343970,SVPGHI,AOML,MARIA_S._MERI,North
2020-09-06T10:59:57Z,2020,11,0,250.4583,250.4583,62.605,-52.553,-999.0,7.28,-999.0,no,yes,no,300234068343970,SVPGHI,AOML,MARIA_S._MERI,North
2020-09-06T12:00:00Z,2020,12,0,250.5,250.5,62.607,-52.561,-999.0,7.28,-999.0,no,yes,no,300234068343970,SVPGHI,AOML,MARIA_S._MERI,North
2020-09-06T13:00:02Z,2020,13,0,250.5417,250.5417,62.61,-52.568,-999.0,7.31,-999.0,no,yes,no,300234068343970,SVPGHI,AOML,MARIA_S._MERI,North
2020-09-06T13:59:57Z,2020,14,0,250.5833,250.5833,62.613,-52.573,-999.0,7.35,-999.0,no,yes,no,300234068343970,SVPGHI,AOML,MARIA_S._MERI,North
2020-09-06T15:00:00Z,2020,15,0,250.625,250.625,62.614,-52.578,-999.0,7.39,-999.0,no,yes,no,300234068343970,SVPGHI,AOML,MARIA_S._MERI,North
2020-09-06T16:00:02Z,2020,16,0,250.6667,250.6667,62.615,-52.587,-999.0,7.52,-999.0,no,yes,no,300234068343970,SVPGHI,AOML,MARIA_S._MERI,North
2020-09-06T16:59:57Z,2020,17,0,250.7083,250.7083,62.614,-52.595,-999.0,7.54,-999.0,no,yes,no,300234068343970,SVPGHI,AOML,MARIA_S._MERI,North
2020-09-06T18:00:00Z,2020,18,0,250.75,250.75,62.616,-52.603,-999.0,7.61,-999.0,no,yes,no,300234068343970,SVPGHI,AOML,MARIA_S._MERI,North
2020-09-06T19:01:03Z,2020,19,1,250.7924,250.7924,62.621,-52.612,-999.0,7.6,-999.0,no,yes,no,300234068343970,SVPGHI,AOML,MARIA_S._MERI,North
2020-09-06T19:59:57Z,2020,20,0,250.8333,250.8333,62.623,-52.613,-999.0,7.38,-999.0,no,yes,no,300234068343970,SVPGHI,AOML,MARIA_S._MERI,North
2020-09-06T21:00:00Z,2020,21,0,250.875,250.875,62.624,-52.619,-999.0,7.31,-999.0,no,yes,no,300234068343970,SVPGHI,AOML,MARIA_S._MERI,North
2020-09-06T22:01:03Z,2020,22,1,250.9174,250.9174,62.625,-52.627,-999.0,7.29,-999.0,no,yes,no,300234068343970,SVPGHI,AOML,MARIA_S._MERI,North
2020-09-06T23:00:57Z,2020,23,1,250.959,250.959,62.628,-52.633,-999.0,7.28,-999.0,no,yes,no,300234068343970,SVPGHI,AOML,MARIA_S._MERI,North
2020-09-07T00:01:00Z,2020,0,1,251.0007,251.0007,62.629,-52.646,-999.0,7.28,-999.0,no,yes,no,300234068343970,SVPGHI,AOML,MARIA_S._MERI,North
2020-09-07T01:00:02Z,2020,1,0,251.0417,251.0417,62.627,-52.656,-999.0,7.26,-999.0,no,yes,no,300234068343970,SVPGHI,AOML,MARIA_S._MERI,North
2020-09-07T01:59:57Z,2020,2,0,251.0833,251.0833,62.626,-52.668,-999.0,7.26,-999.0,no,yes,no,300234068343970,SVPGHI,AOML,MARIA_S._MERI,North
2020-09-07T03:00:00Z,2020,3,0,251.125,251.125,62.624,-52.681,-999.0,7.26,-999.0,no,yes,no,300234068343970,SVPGHI,AOML,MARIA_S._MERI,North
2020-09-07T04:00:02Z,2020,4,0,251.1667,251.1667,62.622,-52.696,-999.0,7.26,-999.0,no,yes,no,300234068343970,SVPGHI,AOML,MARIA_S._MERI,North
2020-09-07T04:59:57Z,2020,5,0,251.2083,251.2083,62.622,-52.71,-999.0,7.24,-999.0,no,yes,no,300234068343970,SVPGHI,AOML,MARIA_S._MERI,North
2020-09-07T06:00:00Z,2020,6,0,251.25,251.25,62.622,-52.718,-999.0,7.24,-999.0,no,yes,no,300234068343970,SVPGHI,AOML,MARIA_S._MERI,North
2020-09-07T07:00:02Z,2020,7,0,251.2917,251.2917,62.625,-52.729,-999.0,7.24,-999.0,no,yes,no,300234068343970,SVPGHI,AOML,MARIA_S._MERI,North
2020-09-07T07:59:57Z,2020,8,0,251.3333,251.3333,62.63,-52.733,-999.0,7.23,-999.0,no,yes,no,300234068343970,SVPGHI,AOML,MARIA_S._MERI,North
2020-09-07T09:00:00Z,2020,9,0,251.375,251.375,62.633,-52.738,-999.0,7.23,-999.0,no,yes,no,300234068343970,SVPGHI,AOML,MARIA_S._MERI,North
2020-09-07T10:00:02Z,2020,10,0,251.4167,251.4167,62.633,-52.742,-999.0,7.22,-999.0,no,yes,no,300234068343970,SVPGHI,AOML,MARIA_S._MERI,North
2020-09-07T12:00:00Z,2020,12,0,251.5,251.5,62.634,-52.757,-999.0,7.23,-999.0,no,yes,no,300234068343970,SVPGHI,AOML,MARIA_S._MERI,North
2020-09-07T13:03:56Z,2020,13,4,251.5444,251.5444,62.631,-52.764,-999.0,7.24,-999.0,no,yes,no,300234068343970,SVPGHI,AOML,MARIA_S._MERI,North
2020-09-07T13:59:57Z,2020,14,0,251.5833,251.5833,62.629,-52.777,-999.0,7.25,-999.0,no,yes,no,300234068343970,SVPGHI,AOML,MARIA_S._MERI,North
2020-09-07T15:00:00Z,2020,15,0,251.625,251.625,62.629,-52.788,-999.0,7.27,-999.0,no,yes,no,300234068343970,SVPGHI,AOML,MARIA_S._MERI,North
2020-09-07T16:00:02Z,2020,16,0,251.6667,251.6667,62.63,-52.796,-999.0,7.28,-999.0,no,yes,no,300234068343970,SVPGHI,AOML,MARIA_S._MERI,North
2020-09-07T16:59:57Z,2020,17,0,251.7083,251.7083,62.629,-52.804,-999.0,7.3,-999.0,no,yes,no,300234068343970,SVPGHI,AOML,MARIA_S._MERI,North
2020-09-07T18:00:00Z,2020,18,0,251.75,251.75,62.628,-52.814,-999.0,7.32,-999.0,no,yes,no,300234068343970,SVPGHI,AOML,MARIA_S._MERI,North
2020-09-07T19:02:03Z,2020,19,2,251.7931,251.7931,62.63,-52.827,-999.0,7.31,-999.0,no,yes,no,300234068343970,SVPGHI,AOML,MARIA_S._MERI,North
2020-09-07T20:00:57Z,2020,20,1,251.834,251.834,62.631,-52.835,-999.0,7.31,-999.0,no,yes,no,300234068343970,SVPGHI,AOML,MARIA_S._MERI,North
2020-09-07T21:02:00Z,2020,21,2,251.8764,251.8764,62.635,-52.843,-999.0,7.31,-999.0,no,yes,no,300234068343970,SVPGHI,AOML,MARIA_S._MERI,North
2020-09-07T22:01:03Z,2020,22,1,251.9174,251.9174,62.638,-52.85,-999.0,7.31,-999.0,no,yes,no,300234068343970,SVPGHI,AOML,MARIA_S._MERI,North
2020-09-07T22:59:57Z,2020,23,0,251.9583,251.9583,62.642,-52.855,-999.0,7.31,-999.0,no,yes,no,300234068343970,SVPGHI,AOML,MARIA_S._MERI,North
2020-09-08T00:00:00Z,2020,0,0,252.0,252.0,62.643,-52.864,-999.0,7.32,-999.0,no,yes,no,300234068343970,SVPGHI,AOML,MARIA_S._MERI,North
2020-09-08T01:00:02Z,2020,1,0,252.0417,252.0417,62.642,-52.87,-999.0,7.31,-999.0,no,yes,no,300234068343970,SVPGHI,AOML,MARIA_S._MERI,North
2020-09-08T02:00:57Z,2020,2,1,252.084,252.084,62.64,-52.883,-999.0,7.31,-999.0,no,yes,no,300234068343970,SVPGHI,AOML,MARIA_S._MERI,North
2020-09-08T03:00:00Z,2020,3,0,252.125,252.125,62.64,-52.894,-999.0,7.31,-999.0,no,yes,no,300234068343970,SVPGHI,AOML,MARIA_S._MERI,North
2020-09-08T04:00:02Z,2020,4,0,252.1667,252.1667,62.638,-52.908,-999.0,7.27,-999.0,no,yes,no,300234068343970,SVPGHI,AOML,MARIA_S._MERI,North
2020-09-08T04:59:57Z,2020,5,0,252.2083,252.2083,62.637,-52.922,-999.0,7.29,-999.0,no,yes,no,300234068343970,SVPGHI,AOML,MARIA_S._MERI,North
2020-09-08T06:00:00Z,2020,6,0,252.25,252.25,62.637,-52.935,-999.0,7.29,-999.0,no,yes,no,300234068343970,SVPGHI,AOML,MARIA_S._MERI,North
2020-09-08T07:00:02Z,2020,7,0,252.2917,252.2917,62.636,-52.947,-999.0,7.3,-999.0,no,yes,no,300234068343970,SVPGHI,AOML,MARIA_S._MERI,North
2020-09-08T07:59:57Z,2020,8,0,252.3333,252.3333,62.639,-52.959,-999.0,7.3,-999.0,no,yes,no,300234068343970,SVPGHI,AOML,MARIA_S._MERI,North
2020-09-08T09:00:00Z,2020,9,0,252.375,252.375,62.643,-52.966,-999.0,7.3,-999.0,no,yes,no,300234068343970,SVPGHI,AOML,MARIA_S._MERI,North
2020-09-08T10:00:02Z,2020,10,0,252.4167,252.4167,62.643,-52.973,-999.0,7.3,-999.0,no,yes,no,300234068343970,SVPGHI,AOML,MARIA_S._MERI,North
2020-09-08T11:00:57Z,2020,11,1,252.459,252.459,62.643,-52.981,-999.0,7.3,-999.0,no,yes,no,300234068343970,SVPGHI,AOML,MARIA_S._MERI,North
2020-09-08T12:00:00Z,2020,12,0,252.5,252.5,62.643,-52.991,-999.0,7.3,-999.0,no,yes,no,300234068343970,SVPGHI,AOML,MARIA_S._MERI,North
2020-09-08T13:00:02Z,2020,13,0,252.5417,252.5417,62.642,-53.004,-999.0,7.3,-999.0,no,yes,no,300234068343970,SVPGHI,AOML,MARIA_S._MERI,North
2020-09-08T14:01:58Z,2020,14,2,252.5847,252.5847,62.642,-53.022,-999.0,7.31,-999.0,no,yes,no,300234068343970,SVPGHI,AOML,MARIA_S._MERI,North
2020-09-08T15:00:00Z,2020,15,0,252.625,252.625,62.642,-53.036,-999.0,7.32,-999.0,no,yes,no,300234068343970,SVPGHI,AOML,MARIA_S._MERI,North
2020-09-08T16:00:02Z,2020,16,0,252.6667,252.6667,62.643,-53.046,-999.0,7.34,-999.0,no,yes,no,300234068343970,SVPGHI,AOML,MARIA_S._MERI,North
2020-09-08T16:59:57Z,2020,17,0,252.7083,252.7083,62.645,-53.055,-999.0,7.33,-999.0,no,yes,no,300234068343970,SVPGHI,AOML,MARIA_S._MERI,North
2020-09-08T18:00:00Z,2020,18,0,252.75,252.75,62.644,-53.06,-999.0,7.33,-999.0,no,yes,no,300234068343970,SVPGHI,AOML,MARIA_S._MERI,North
2020-09-08T19:02:03Z,2020,19,2,252.7931,252.7931,62.645,-53.062,-999.0,7.32,-999.0,no,yes,no,300234068343970,SVPGHI,AOML,MARIA_S._MERI,North
2020-09-08T19:59:57Z,2020,20,0,252.8333,252.8333,62.645,-53.065,-999.0,7.31,-999.0,no,yes,no,300234068343970,SVPGHI,AOML,MARIA_S._MERI,North
2020-09-08T21:00:00Z,2020,21,0,252.875,252.875,62.646,-53.068,-999.0,7.31,-999.0,no,yes,no,300234068343970,SVPGHI,AOML,MARIA_S._MERI,North
2020-09-08T22:00:02Z,2020,22,0,252.9167,252.9167,62.646,-53.078,-999.0,7.3,-999.0,no,yes,no,300234068343970,SVPGHI,AOML,MARIA_S._MERI,North
2020-09-08T22:59:57Z,2020,23,0,252.9583,252.9583,62.65,-53.086,-999.0,7.3,-999.0,no,yes,no,300234068343970,SVPGHI,AOML,MARIA_S._MERI,North
2020-09-09T00:00:00Z,2020,0,0,253.0,253.0,62.65,-53.096,-999.0,7.29,-999.0,no,yes,no,300234068343970,SVPGHI,AOML,MARIA_S._MERI,North
2020-09-09T01:00:02Z,2020,1,0,253.0417,253.0417,62.651,-53.103,-999.0,7.29,-999.0,no,yes,no,300234068343970,SVPGHI,AOML,MARIA_S._MERI,North
2020-09-09T01:59:57Z,2020,2,0,253.0833,253.0833,62.652,-53.111,-999.0,7.3,-999.0,no,yes,no,300234068343970,SVPGHI,AOML,MARIA_S._MERI,North
2020-09-09T03:00:00Z,2020,3,0,253.125,253.125,62.654,-53.117,-999.0,7.29,-999.0,no,yes,no,300234068343970,SVPGHI,AOML,MARIA_S._MERI,North
2020-09-09T04:03:56Z,2020,4,4,253.1694,253.1694,62.654,-53.112,-999.0,7.3,-999.0,no,yes,no,300234068343970,SVPGHI,AOML,MARIA_S._MERI,North
2020-09-09T05:02:58Z,2020,5,3,253.2104,253.2104,62.652,-53.113,-999.0,7.3,-999.0,no,yes,no,300234068343970,SVPGHI,AOML,MARIA_S._MERI,North
2020-09-09T06:00:00Z,2020,6,0,253.25,253.25,62.65,-53.111,-999.0,7.3,-999.0,no,yes,no,300234068343970,SVPGHI,AOML,MARIA_S._MERI,North
2020-09-09T07:00:02Z,2020,7,0,253.2917,253.2917,62.646,-53.105,-999.0,7.3,-999.0,no,yes,no,300234068343970,SVPGHI,AOML,MARIA_S._MERI,North
2020-09-09T07:59:57Z,2020,8,0,253.3333,253.3333,62.641,-53.102,-999.0,7.29,-999.0,no,yes,no,300234068343970,SVPGHI,AOML,MARIA_S._MERI,North
2020-09-09T09:00:00Z,2020,9,0,253.375,253.375,62.636,-53.1,-999.0,7.29,-999.0,no,yes,no,300234068343970,SVPGHI,AOML,MARIA_S._MERI,North
2020-09-09T10:01:03Z,2020,10,1,253.4174,253.4174,62.633,-53.108,-999.0,7.29,-999.0,no,yes,no,300234068343970,SVPGHI,AOML,MARIA_S._MERI,North
2020-09-09T10:59:57Z,2020,11,0,253.4583,253.4583,62.627,-53.119,-999.0,7.27,-999.0,no,yes,no,300234068343970,SVPGHI,AOML,MARIA_S._MERI,North
2020-09-09T12:00:00Z,2020,12,0,253.5,253.5,62.625,-53.131,-999.0,7.28,-999.0,no,yes,no,300234068343970,SVPGHI,AOML,MARIA_S._MERI,North
2020-09-09T13:00:02Z,2020,13,0,253.5417,253.5417,62.622,-53.139,-999.0,7.28,-999.0,no,yes,no,300234068343970,SVPGHI,AOML,MARIA_S._MERI,North
2020-09-09T13:59:57Z,2020,14,0,253.5833,253.5833,62.62,-53.149,-999.0,7.28,-999.0,no,yes,no,300234068343970,SVPGHI,AOML,MARIA_S._MERI,North
2020-09-09T16:02:55Z,2020,16,3,253.6687,253.6687,62.617,-53.171,-999.0,7.31,-999.0,no,yes,no,300234068343970,SVPGHI,AOML,MARIA_S._MERI,North
2020-09-09T16:59:57Z,2020,17,0,253.7083,253.7083,62.618,-53.175,-999.0,7.32,-999.0,no,yes,no,300234068343970,SVPGHI,AOML,MARIA_S._MERI,North
2020-09-09T18:00:00Z,2020,18,0,253.75,253.75,62.618,-53.171,-999.0,7.33,-999.0,no,yes,no,300234068343970,SVPGHI,AOML,MARIA_S._MERI,North
2020-09-09T19:02:55Z,2020,19,3,253.7937,253.7937,62.618,-53.166,-999.0,7.33,-999.0,no,yes,no,300234068343970,SVPGHI,AOML,MARIA_S._MERI,North
2020-09-09T19:59:57Z,2020,20,0,253.8333,253.8333,62.616,-53.157,-999.0,7.33,-999.0,no,yes,no,300234068343970,SVPGHI,AOML,MARIA_S._MERI,North
2020-09-09T21:00:00Z,2020,21,0,253.875,253.875,62.61,-53.146,-999.0,7.32,-999.0,no,yes,no,300234068343970,SVPGHI,AOML,MARIA_S._MERI,North
2020-09-09T22:00:02Z,2020,22,0,253.9167,253.9167,62.603,-53.135,-999.0,7.32,-999.0,no,yes,no,300234068343970,SVPGHI,AOML,MARIA_S._MERI,North
2020-09-09T23:02:58Z,2020,23,3,253.9604,253.9604,62.596,-53.125,-999.0,7.31,-999.0,no,yes,no,300234068343970,SVPGHI,AOML,MARIA_S._MERI,North
2020-09-10T00:00:00Z,2020,0,0,254.0,254.0,62.588,-53.13,-999.0,7.31,-999.0,no,yes,no,300234068343970,SVPGHI,AOML,MARIA_S._MERI,North
2020-09-10T01:00:02Z,2020,1,0,254.0417,254.0417,62.584,-53.136,-999.0,7.31,-999.0,no,yes,no,300234068343970,SVPGHI,AOML,MARIA_S._MERI,North
2020-09-10T01:59:57Z,2020,2,0,254.0833,254.0833,62.578,-53.148,-999.0,7.3,-999.0,no,yes,no,300234068343970,SVPGHI,AOML,MARIA_S._MERI,North
2020-09-10T03:00:00Z,2020,3,0,254.125,254.125,62.578,-53.161,-999.0,7.3,-999.0,no,yes,no,300234068343970,SVPGHI,AOML,MARIA_S._MERI,North
2020-09-10T04:03:56Z,2020,4,4,254.1694,254.1694,-90.0,-180.0,-999.0,7.29,-999.0,no,yes,no,300234068343970,SVPGHI,AOML,MARIA_S._MERI,North
2020-09-10T05:02:58Z,2020,5,3,254.2104,254.2104,62.587,-53.165,-999.0,7.28,-999.0,no,yes,no,300234068343970,SVPGHI,AOML,MARIA_S._MERI,North
2020-09-10T06:00:00Z,2020,6,0,254.25,254.25,62.593,-53.152,-999.0,7.27,-999.0,no,yes,no,300234068343970,SVPGHI,AOML,MARIA_S._MERI,North
2020-09-10T07:59:57Z,2020,8,0,254.3333,254.3333,62.596,-53.105,-999.0,7.27,-999.0,no,yes,no,300234068343970,SVPGHI,AOML,MARIA_S._MERI,North
2020-09-10T09:00:00Z,2020,9,0,254.375,254.375,62.591,-53.079,-999.0,7.26,-999.0,no,yes,no,300234068343970,SVPGHI,AOML,MARIA_S._MERI,North
2020-09-10T10:03:56Z,2020,10,4,254.4194,254.4194,62.587,-53.058,-999.0,7.26,-999.0,no,yes,no,300234068343970,SVPGHI,AOML,MARIA_S._MERI,North
2020-09-10T11:02:58Z,2020,11,3,254.4604,254.4604,62.579,-53.039,-999.0,7.26,-999.0,no,yes,no,300234068343970,SVPGHI,AOML,MARIA_S._MERI,North
2020-09-10T12:00:00Z,2020,12,0,254.5,254.5,62.571,-53.033,-999.0,7.27,-999.0,no,yes,no,300234068343970,SVPGHI,AOML,MARIA_S._MERI,North
2020-09-10T13:00:02Z,2020,13,0,254.5417,254.5417,62.561,-53.036,-999.0,7.28,-999.0,no,yes,no,300234068343970,SVPGHI,AOML,MARIA_S._MERI,North
2020-09-10T14:00:57Z,2020,14,1,254.584,254.584,62.554,-53.052,-999.0,7.28,-999.0,no,yes,no,300234068343970,SVPGHI,AOML,MARIA_S._MERI,North
2020-09-10T15:00:00Z,2020,15,0,254.625,254.625,62.553,-53.072,-999.0,7.3,-999.0,no,yes,no,300234068343970,SVPGHI,AOML,MARIA_S._MERI,North
2020-09-10T16:00:02Z,2020,16,0,254.6667,254.6667,62.557,-53.084,-999.0,7.31,-999.0,no,yes,no,300234068343970,SVPGHI,AOML,MARIA_S._MERI,North
2020-09-10T16:59:57Z,2020,17,0,254.7083,254.7083,62.564,-53.088,-999.0,7.31,-999.0,no,yes,no,300234068343970,SVPGHI,AOML,MARIA_S._MERI,North
2020-09-10T18:00:00Z,2020,18,0,254.75,254.75,62.573,-53.084,-999.0,7.32,-999.0,no,yes,no,300234068343970,SVPGHI,AOML,MARIA_S._MERI,North
2020-09-10T19:00:02Z,2020,19,0,254.7917,254.7917,62.581,-53.069,-999.0,7.32,-999.0,no,yes,no,300234068343970,SVPGHI,AOML,MARIA_S._MERI,North
2020-09-10T19:59:57Z,2020,20,0,254.8333,254.8333,62.587,-53.043,-999.0,7.31,-999.0,no,yes,no,300234068343970,SVPGHI,AOML,MARIA_S._MERI,North
2020-09-10T21:01:00Z,2020,21,1,254.8757,254.8757,62.585,-53.011,-999.0,7.31,-999.0,no,yes,no,300234068343970,SVPGHI,AOML,MARIA_S._MERI,North
2020-09-10T22:00:02Z,2020,22,0,254.9167,254.9167,62.579,-52.984,-999.0,7.28,-999.0,no,yes,no,300234068343970,SVPGHI,AOML,MARIA_S._MERI,North
2020-09-10T22:59:57Z,2020,23,0,254.9583,254.9583,62.571,-52.962,-999.0,7.28,-999.0,no,yes,no,300234068343970,SVPGHI,AOML,MARIA_S._MERI,North
2020-09-11T00:01:00Z,2020,0,1,255.0007,255.0007,62.56,-52.95,-999.0,7.28,-999.0,no,yes,no,300234068343970,SVPGHI,AOML,MARIA_S._MERI,North
2020-09-11T01:00:02Z,2020,1,0,255.0417,255.0417,62.55,-52.954,-999.0,7.26,-999.0,no,yes,no,300234068343970,SVPGHI,AOML,MARIA_S._MERI,North
2020-09-11T01:59:57Z,2020,2,0,255.0833,255.0833,62.542,-52.963,-999.0,7.26,-999.0,no,yes,no,300234068343970,SVPGHI,AOML,MARIA_S._MERI,North
2020-09-11T03:00:00Z,2020,3,0,255.125,255.125,62.54,-52.978,-999.0,7.26,-999.0,no,yes,no,300234068343970,SVPGHI,AOML,MARIA_S._MERI,North
2020-09-11T04:01:03Z,2020,4,1,255.1674,255.1674,62.544,-52.99,-999.0,7.25,-999.0,no,yes,no,300234068343970,SVPGHI,AOML,MARIA_S._MERI,North
2020-09-11T04:59:57Z,2020,5,0,255.2083,255.2083,62.553,-52.997,-999.0,7.25,-999.0,no,yes,no,300234068343970,SVPGHI,AOML,MARIA_S._MERI,North
2020-09-11T06:00:00Z,2020,6,0,255.25,255.25,62.563,-52.993,-999.0,7.25,-999.0,no,yes,no,300234068343970,SVPGHI,AOML,MARIA_S._MERI,North
2020-09-11T07:02:03Z,2020,7,2,255.2931,255.2931,62.572,-52.972,-999.0,7.24,-999.0,no,yes,no,300234068343970,SVPGHI,AOML,MARIA_S._MERI,North
2020-09-11T07:59:57Z,2020,8,0,255.3333,255.3333,62.577,-52.95,-999.0,7.23,-999.0,no,yes,no,300234068343970,SVPGHI,AOML,MARIA_S._MERI,North
2020-09-11T09:00:00Z,2020,9,0,255.375,255.375,62.577,-52.921,-999.0,7.23,-999.0,no,yes,no,300234068343970,SVPGHI,AOML,MARIA_S._MERI,North
2020-09-11T10:00:02Z,2020,10,0,255.4167,255.4167,62.575,-52.892,-999.0,7.22,-999.0,no,yes,no,300234068343970,SVPGHI,AOML,MARIA_S._MERI,North
2020-09-11T11:01:58Z,2020,11,2,255.4597,255.4597,62.568,-52.866,-999.0,7.23,-999.0,no,yes,no,300234068343970,SVPGHI,AOML,MARIA_S._MERI,North
2020-09-11T12:00:00Z,2020,12,0,255.5,255.5,62.56,-52.85,-999.0,7.23,-999.0,no,yes,no,300234068343970,SVPGHI,AOML,MARIA_S._MERI,North
2020-09-11T13:00:02Z,2020,13,0,255.5417,255.5417,62.552,-52.849,-999.0,7.25,-999.0,no,yes,no,300234068343970,SVPGHI,AOML,MARIA_S._MERI,North
2020-09-11T14:00:57Z,2020,14,1,255.584,255.584,62.545,-52.861,-999.0,7.26,-999.0,no,yes,no,300234068343970,SVPGHI,AOML,MARIA_S._MERI,North
2020-09-11T15:00:00Z,2020,15,0,255.625,255.625,62.543,-52.876,-999.0,7.28,-999.0,no,yes,no,300234068343970,SVPGHI,AOML,MARIA_S._MERI,North
2020-09-11T16:00:02Z,2020,16,0,255.6667,255.6667,62.549,-52.884,-999.0,7.3,-999.0,no,yes,no,300234068343970,SVPGHI,AOML,MARIA_S._MERI,North
2020-09-11T16:59:57Z,2020,17,0,255.7083,255.7083,62.557,-52.891,-999.0,7.31,-999.0,no,yes,no,300234068343970,SVPGHI,AOML,MARIA_S._MERI,North
2020-09-11T18:00:00Z,2020,18,0,255.75,255.75,62.57,-52.89,-999.0,7.31,-999.0,no,yes,no,300234068343970,SVPGHI,AOML,MARIA_S._MERI,North
2020-09-11T19:00:02Z,2020,19,0,255.7917,255.7917,62.582,-52.875,-999.0,7.31,-999.0,no,yes,no,300234068343970,SVPGHI,AOML,MARIA_S._MERI,North
2020-09-11T20:00:57Z,2020,20,1,255.834,255.834,62.587,-52.848,-999.0,7.3,-999.0,no,yes,no,300234068343970,SVPGHI,AOML,MARIA_S._MERI,North
2020-09-11T21:00:00Z,2020,21,0,255.875,255.875,62.59,-52.823,-999.0,7.29,-999.0,no,yes,no,300234068343970,SVPGHI,AOML,MARIA_S._MERI,North
2020-09-11T22:00:02Z,2020,22,0,255.9167,255.9167,62.587,-52.799,-999.0,7.27,-999.0,no,yes,no,300234068343970,SVPGHI,AOML,MARIA_S._MERI,North
2020-09-11T22:59:57Z,2020,23,0,255.9583,255.9583,62.58,-52.777,-999.0,7.25,-999.0,no,yes,no,300234068343970,SVPGHI,AOML,MARIA_S._MERI,North
2020-09-12T00:01:00Z,2020,0,1,256.0007,256.0007,62.571,-52.766,-999.0,7.25,-999.0,no,yes,no,300234068343970,SVPGHI,AOML,MARIA_S._MERI,North
2020-09-12T01:00:02Z,2020,1,0,256.0417,256.0417,62.564,-52.764,-999.0,7.24,-999.0,no,yes,no,300234068343970,SVPGHI,AOML,MARIA_S._MERI,North
2020-09-12T02:03:59Z,2020,2,4,256.0861,256.0861,62.56,-52.769,-999.0,7.24,-999.0,no,yes,no,300234068343970,SVPGHI,AOML,MARIA_S._MERI,North
2020-09-12T03:04:01Z,2020,3,4,256.1278,256.1278,62.555,-52.78,-999.0,7.22,-999.0,no,yes,no,300234068343970,SVPGHI,AOML,MARIA_S._MERI,North
2020-09-12T04:00:02Z,2020,4,0,256.1667,256.1667,62.557,-52.794,-999.0,7.22,-999.0,no,yes,no,300234068343970,SVPGHI,AOML,MARIA_S._MERI,North
2020-09-12T04:59:57Z,2020,5,0,256.2083,256.2083,62.564,-52.806,-999.0,7.22,-999.0,no,yes,no,300234068343970,SVPGHI,AOML,MARIA_S._MERI,North
2020-09-12T06:01:00Z,2020,6,1,256.2507,256.2507,62.575,-52.81,-999.0,7.2,-999.0,no,yes,no,300234068343970,SVPGHI,AOML,MARIA_S._MERI,North
2020-09-12T07:01:03Z,2020,7,1,256.2924,256.2924,62.587,-52.806,-999.0,7.19,-999.0,no,yes,no,300234068343970,SVPGHI,AOML,MARIA_S._MERI,North
2020-09-12T07:59:57Z,2020,8,0,256.3333,256.3333,62.596,-52.79,-999.0,7.2,-999.0,no,yes,no,300234068343970,SVPGHI,AOML,MARIA_S._MERI,North
2020-09-12T09:05:02Z,2020,9,5,256.3785,256.3785,-90.0,-180.0,-999.0,7.2,-999.0,no,yes,no,300234068343970,SVPGHI,AOML,MARIA_S._MERI,North
2020-09-12T10:00:02Z,2020,10,0,256.4167,256.4167,62.745,-52.62,-999.0,7.18,-999.0,no,yes,no,300234068343970,SVPGHI,AOML,MARIA_S._MERI,North
2020-09-12T10:59:57Z,2020,11,0,256.4583,256.4583,62.493,-52.538,-999.0,7.19,-999.0,no,yes,no,300234068343970,SVPGHI,AOML,MARIA_S._MERI,North
2020-09-12T12:00:00Z,2020,12,0,256.5,256.5,62.593,-52.713,-999.0,7.19,-999.0,no,yes,no,300234068343970,SVPGHI,AOML,MARIA_S._MERI,North
2020-09-12T13:00:02Z,2020,13,0,256.5417,256.5417,62.59,-52.703,-999.0,7.21,-999.0,no,yes,no,300234068343970,SVPGHI,AOML,MARIA_S._MERI,North
2020-09-12T14:02:58Z,2020,14,3,256.5854,256.5854,62.585,-52.701,-999.0,7.22,-999.0,no,yes,no,300234068343970,SVPGHI,AOML,MARIA_S._MERI,North
2020-09-12T15:00:00Z,2020,15,0,256.625,256.625,62.581,-52.711,-999.0,7.23,-999.0,no,yes,no,300234068343970,SVPGHI,AOML,MARIA_S._MERI,North
2020-09-12T16:00:02Z,2020,16,0,256.6667,256.6667,62.581,-52.725,-999.0,7.24,-999.0,no,yes,no,300234068343970,SVPGHI,AOML,MARIA_S._MERI,North
2020-09-12T16:59:57Z,2020,17,0,256.7083,256.7083,62.585,-52.74,-999.0,7.24,-999.0,no,yes,no,300234068343970,SVPGHI,AOML,MARIA_S._MERI,North
2020-09-12T18:00:00Z,2020,18,0,256.75,256.75,62.594,-52.751,-999.0,7.25,-999.0,no,yes,no,300234068343970,SVPGHI,AOML,MARIA_S._MERI,North
2020-09-12T19:00:02Z,2020,19,0,256.7917,256.7917,62.607,-52.753,-999.0,7.25,-999.0,no,yes,no,300234068343970,SVPGHI,AOML,MARIA_S._MERI,North
2020-09-12T19:59:57Z,2020,20,0,256.8333,256.8333,62.614,-52.743,-999.0,7.24,-999.0,no,yes,no,300234068343970,SVPGHI,AOML,MARIA_S._MERI,North
2020-09-12T21:00:00Z,2020,21,0,256.875,256.875,62.622,-52.728,-999.0,7.24,-999.0,no,yes,no,300234068343970,SVPGHI,AOML,MARIA_S._MERI,North
2020-09-12T22:00:02Z,2020,22,0,256.9167,256.9167,62.626,-52.704,-999.0,7.23,-999.0,no,yes,no,300234068343970,SVPGHI,AOML,MARIA_S._MERI,North
2020-09-12T22:59:57Z,2020,23,0,256.9583,256.9583,62.624,-52.683,-999.0,7.22,-999.0,no,yes,no,300234068343970,SVPGHI,AOML,MARIA_S._MERI,North